Time,TemperatureF,DewpointF,PressureIn,WindDirection,WindDirectionDegrees,WindSpeedMPH,WindSpeedGustMPH,Humidity,HourlyPrecipIn,Conditions,Clouds,dailyrainin,SoftwareType,DateUTC
2013-02-24 00:01:00,27.5,20.7,29.86,SE,132,1.7,2.1,75,0.00,,,0.00,WUHU216HW,2013-02-24 06:01:00,
2013-02-24 00:06:00,27.3,20.5,29.86,SE,128,1.2,2.1,75,0.00,,,0.00,WUHU216HW,2013-02-24 06:06:00,
2013-02-24 00:11:00,27.3,20.5,29.86,ESE,123,1.1,1.5,75,0.00,,,0.00,WUHU216HW,2013-02-24 06:11:00,
2013-02-24 00:16:00,27.3,20.5,29.86,East,99,0.6,1.3,75,0.00,,,0.00,WUHU216HW,2013-02-24 06:16:00,
2013-02-24 00:21:00,27.1,20.3,29.86,ESE,113,0.6,1.0,75,0.00,,,0.00,WUHU216HW,2013-02-24 06:21:00,
2013-02-24 00:26:00,27.1,20.3,29.86,SE,126,1.1,1.3,75,0.00,,,0.00,WUHU216HW,2013-02-24 06:26:00,
2013-02-24 00:31:00,27.1,20.3,29.87,SSE,150,1.5,2.1,75,0.00,,,0.00,WUHU216HW,2013-02-24 06:31:00,
2013-02-24 00:36:00,26.9,20.1,29.87,SSE,149,1.3,1.5,75,0.00,,,0.00,WUHU216HW,2013-02-24 06:36:00,
2013-02-24 00:41:00,26.7,19.9,29.87,SE,135,1.0,1.3,75,0.00,,,0.00,WUHU216HW,2013-02-24 06:41:00,
2013-02-24 00:46:00,26.7,19.9,29.87,SE,135,0.9,1.3,75,0.00,,,0.00,WUHU216HW,2013-02-24 06:46:00,
2013-02-24 00:51:00,26.7,19.9,29.87,SSE,158,0.9,1.0,75,0.00,,,0.00,WUHU216HW,2013-02-24 06:51:00,
2013-02-24 00:56:00,26.7,19.9,29.87,SE,142,1.1,1.3,75,0.00,,,0.00,WUHU216HW,2013-02-24 06:56:00,
2013-02-24 01:01:00,26.6,19.8,29.87,SE,130,1.7,2.3,75,0.00,,,0.00,WUHU216HW,2013-02-24 07:01:00,
2013-02-24 01:06:00,26.4,19.6,29.87,SE,135,1.6,1.8,75,0.00,,,0.00,WUHU216HW,2013-02-24 07:06:00,
2013-02-24 01:11:00,26.2,19.7,29.87,SSE,149,1.7,2.1,76,0.00,,,0.00,WUHU216HW,2013-02-24 07:11:00,
2013-02-24 01:16:00,26.4,19.9,29.88,SSE,151,2.0,2.5,76,0.00,,,0.00,WUHU216HW,2013-02-24 07:16:00,
2013-02-24 01:21:00,26.4,20.2,29.88,SE,140,2.4,2.9,77,0.00,,,0.00,WUHU216HW,2013-02-24 07:21:00,
2013-02-24 01:26:00,26.4,20.2,29.88,SE,138,2.4,2.9,77,0.00,,,0.00,WUHU216HW,2013-02-24 07:26:00,
2013-02-24 01:31:00,26.2,19.7,29.88,SE,145,2.3,3.1,76,0.00,,,0.00,WUHU216HW,2013-02-24 07:31:00,
2013-02-24 01:36:00,26.2,19.7,29.88,SE,140,1.7,2.3,76,0.00,,,0.00,WUHU216HW,2013-02-24 07:36:00,
2013-02-24 01:41:00,26.0,19.5,29.88,SSE,147,1.9,2.9,76,0.00,,,0.00,WUHU216HW,2013-02-24 07:41:00,
2013-02-24 01:46:00,26.0,19.8,29.88,SE,140,1.9,2.3,77,0.00,,,0.00,WUHU216HW,2013-02-24 07:46:00,
2013-02-24 01:51:00,26.0,19.8,29.88,SE,143,1.7,2.9,77,0.00,,,0.00,WUHU216HW,2013-02-24 07:51:00,
2013-02-24 01:56:00,26.0,19.8,29.88,SE,140,1.6,2.1,77,0.00,,,0.00,WUHU216HW,2013-02-24 07:56:00,
2013-02-24 02:01:00,25.8,19.6,29.89,SE,143,2.9,4.1,77,0.00,,,0.00,WUHU216HW,2013-02-24 08:01:00,
2013-02-24 02:06:00,25.8,19.6,29.88,SE,139,2.1,2.9,77,0.00,,,0.00,WUHU216HW,2013-02-24 08:06:00,
2013-02-24 02:11:00,25.7,19.5,29.88,SE,135,2.0,2.9,77,0.00,,,0.00,WUHU216HW,2013-02-24 08:11:00,
2013-02-24 02:16:00,25.7,19.5,29.88,ESE,121,2.3,2.9,77,0.00,,,0.00,WUHU216HW,2013-02-24 08:16:00,
2013-02-24 02:21:00,25.5,19.3,29.88,SE,138,2.0,2.1,77,0.00,,,0.00,WUHU216HW,2013-02-24 08:21:00,
2013-02-24 02:26:00,25.3,19.1,29.88,ESE,122,2.0,2.3,77,0.00,,,0.00,WUHU216HW,2013-02-24 08:26:00,
2013-02-24 02:31:00,25.3,19.1,29.88,SE,135,2.3,2.5,77,0.00,,,0.00,WUHU216HW,2013-02-24 08:31:00,
2013-02-24 02:36:00,25.1,19.0,29.88,SE,135,2.0,2.9,77,0.00,,,0.00,WUHU216HW,2013-02-24 08:36:00,
2013-02-24 02:41:00,25.1,19.0,29.88,SE,140,1.9,2.3,77,0.00,,,0.00,WUHU216HW,2013-02-24 08:41:00,
2013-02-24 02:46:00,25.1,19.0,29.88,SSE,150,1.5,2.1,77,0.00,,,0.00,WUHU216HW,2013-02-24 08:46:00,
2013-02-24 02:51:00,25.1,19.0,29.89,SSE,153,1.6,2.3,77,0.00,,,0.00,WUHU216HW,2013-02-24 08:51:00,
2013-02-24 02:56:00,24.9,18.8,29.89,SSE,147,1.5,2.1,77,0.00,,,0.00,WUHU216HW,2013-02-24 08:56:00,
2013-02-24 03:01:00,24.9,18.8,29.89,SSE,148,1.8,2.9,77,0.00,,,0.00,WUHU216HW,2013-02-24 09:01:00,
2013-02-24 03:06:00,24.8,18.7,29.89,SE,140,1.2,1.3,77,0.00,,,0.00,WUHU216HW,2013-02-24 09:06:00,
2013-02-24 03:11:00,24.6,18.5,29.89,SE,135,1.0,1.3,77,0.00,,,0.00,WUHU216HW,2013-02-24 09:11:00,
2013-02-24 03:16:00,24.4,18.3,29.89,SE,136,1.4,1.8,77,0.00,,,0.00,WUHU216HW,2013-02-24 09:16:00,
2013-02-24 03:21:00,24.4,18.3,29.88,SE,130,1.2,1.5,77,0.00,,,0.00,WUHU216HW,2013-02-24 09:21:00,
2013-02-24 03:26:00,24.2,18.1,29.88,SE,129,1.1,1.5,77,0.00,,,0.00,WUHU216HW,2013-02-24 09:26:00,
2013-02-24 03:31:00,24.2,18.1,29.88,SE,126,0.9,1.3,77,0.00,,,0.00,WUHU216HW,2013-02-24 09:31:00,
2013-02-24 03:36:00,24.0,18.2,29.88,ESE,116,1.2,1.5,78,0.00,,,0.00,WUHU216HW,2013-02-24 09:36:00,
2013-02-24 03:41:00,24.0,17.9,29.88,SE,125,1.4,1.8,77,0.00,,,0.00,WUHU216HW,2013-02-24 09:41:00,
2013-02-24 03:46:00,23.9,17.8,29.88,SE,132,1.3,2.1,77,0.00,,,0.00,WUHU216HW,2013-02-24 09:46:00,
2013-02-24 03:51:00,23.9,17.8,29.89,SE,135,0.9,1.3,77,0.00,,,0.00,WUHU216HW,2013-02-24 09:51:00,
2013-02-24 03:56:00,23.9,18.1,29.89,SE,129,0.6,0.8,78,0.00,,,0.00,WUHU216HW,2013-02-24 09:56:00,
2013-02-24 04:01:00,24.0,18.2,29.88,SE,139,1.1,1.3,78,0.00,,,0.00,WUHU216HW,2013-02-24 10:01:00,
2013-02-24 04:06:00,24.0,18.2,29.88,SE,124,1.2,2.1,78,0.00,,,0.00,WUHU216HW,2013-02-24 10:06:00,
2013-02-24 04:11:00,24.0,18.2,29.88,SE,126,1.7,2.1,78,0.00,,,0.00,WUHU216HW,2013-02-24 10:11:00,
2013-02-24 04:16:00,24.0,18.2,29.88,ESE,120,1.4,2.1,78,0.00,,,0.00,WUHU216HW,2013-02-24 10:16:00,
2013-02-24 04:21:00,24.2,18.4,29.88,SE,126,1.3,1.3,78,0.00,,,0.00,WUHU216HW,2013-02-24 10:21:00,
2013-02-24 04:26:00,24.2,18.4,29.88,SE,130,0.9,1.3,78,0.00,,,0.00,WUHU216HW,2013-02-24 10:26:00,
2013-02-24 04:31:00,24.2,18.4,29.88,ESE,118,1.0,1.3,78,0.00,,,0.00,WUHU216HW,2013-02-24 10:31:00,
2013-02-24 04:36:00,24.4,18.6,29.88,ESE,113,1.5,2.1,78,0.00,,,0.00,WUHU216HW,2013-02-24 10:36:00,
2013-02-24 04:41:00,24.2,18.4,29.88,ESE,122,1.9,2.1,78,0.00,,,0.00,WUHU216HW,2013-02-24 10:41:00,
2013-02-24 04:46:00,24.2,18.4,29.89,ESE,122,1.4,2.1,78,0.00,,,0.00,WUHU216HW,2013-02-24 10:46:00,
2013-02-24 04:51:00,24.2,18.4,29.89,SE,135,0.9,1.5,78,0.00,,,0.00,WUHU216HW,2013-02-24 10:51:00,
2013-02-24 04:56:00,24.2,18.4,29.89,SE,135,0.8,1.3,78,0.00,,,0.00,WUHU216HW,2013-02-24 10:56:00,
2013-02-24 05:01:00,24.2,18.4,29.90,SE,145,1.1,1.5,78,0.00,,,0.00,WUHU216HW,2013-02-24 11:01:00,
2013-02-24 05:06:00,24.2,18.4,29.90,SSE,151,1.3,2.3,78,0.00,,,0.00,WUHU216HW,2013-02-24 11:06:00,
2013-02-24 05:11:00,24.0,18.2,29.90,SE,135,1.0,1.8,78,0.00,,,0.00,WUHU216HW,2013-02-24 11:11:00,
2013-02-24 05:16:00,23.9,17.8,29.90,SE,133,0.9,1.3,77,0.00,,,0.00,WUHU216HW,2013-02-24 11:16:00,
2013-02-24 05:21:00,23.5,17.4,29.90,ENE,77,1.0,1.5,77,0.00,,,0.00,WUHU216HW,2013-02-24 11:21:00,
2013-02-24 05:26:00,23.5,17.4,29.90,East,80,1.1,1.3,77,0.00,,,0.00,WUHU216HW,2013-02-24 11:26:00,
2013-02-24 05:31:00,23.5,17.4,29.90,ESE,109,1.5,2.1,77,0.00,,,0.00,WUHU216HW,2013-02-24 11:31:00,
2013-02-24 05:36:00,23.1,17.0,29.90,East,88,1.1,1.8,77,0.00,,,0.00,WUHU216HW,2013-02-24 11:36:00,
2013-02-24 05:41:00,23.1,17.0,29.90,ENE,74,1.0,1.5,77,0.00,,,0.00,WUHU216HW,2013-02-24 11:41:00,
2013-02-24 05:46:00,23.1,17.0,29.90,SE,127,1.2,1.3,77,0.00,,,0.00,WUHU216HW,2013-02-24 11:46:00,
2013-02-24 05:51:00,23.0,16.9,29.91,SE,135,0.9,1.3,77,0.00,,,0.00,WUHU216HW,2013-02-24 11:51:00,
2013-02-24 05:56:00,22.8,17.0,29.91,ESE,106,1.1,1.3,78,0.00,,,0.00,WUHU216HW,2013-02-24 11:56:00,
2013-02-24 06:01:00,22.8,17.0,29.91,ESE,113,1.5,1.8,78,0.00,,,0.00,WUHU216HW,2013-02-24 12:01:00,
2013-02-24 06:06:00,22.8,17.0,29.91,ESE,113,1.3,1.8,78,0.00,,,0.00,WUHU216HW,2013-02-24 12:06:00,
2013-02-24 06:11:00,22.8,17.0,29.91,ESE,113,1.2,1.3,78,0.00,,,0.00,WUHU216HW,2013-02-24 12:11:00,
2013-02-24 06:16:00,23.0,17.2,29.91,East,89,1.5,1.8,78,0.00,,,0.00,WUHU216HW,2013-02-24 12:16:00,
2013-02-24 06:21:00,23.1,17.3,29.91,East,89,1.7,2.1,78,0.00,,,0.00,WUHU216HW,2013-02-24 12:21:00,
2013-02-24 06:26:00,23.3,17.5,29.91,ESE,122,1.2,1.5,78,0.00,,,0.00,WUHU216HW,2013-02-24 12:26:00,
2013-02-24 06:31:00,23.5,17.7,29.91,ESE,113,1.1,1.3,78,0.00,,,0.00,WUHU216HW,2013-02-24 12:31:00,
2013-02-24 06:36:00,23.7,17.9,29.91,SE,131,1.3,1.8,78,0.00,,,0.00,WUHU216HW,2013-02-24 12:36:00,
2013-02-24 06:41:00,23.9,18.4,29.91,SE,135,1.5,1.8,79,0.00,,,0.00,WUHU216HW,2013-02-24 12:41:00,
2013-02-24 06:46:00,24.0,18.7,29.91,ESE,118,2.3,2.9,80,0.00,,,0.00,WUHU216HW,2013-02-24 12:46:00,
2013-02-24 06:51:00,24.0,18.5,29.91,ESE,113,2.0,2.3,79,0.00,,,0.00,WUHU216HW,2013-02-24 12:51:00,
2013-02-24 06:56:00,24.0,18.5,29.91,SE,126,2.2,3.1,79,0.00,,,0.00,WUHU216HW,2013-02-24 12:56:00,
2013-02-24 07:01:00,24.0,18.7,29.91,East,100,2.0,3.1,80,0.00,,,0.00,WUHU216HW,2013-02-24 13:01:00,
2013-02-24 07:06:00,24.2,18.7,29.91,SE,135,2.2,2.9,79,0.00,,,0.00,WUHU216HW,2013-02-24 13:06:00,
2013-02-24 07:11:00,24.2,18.7,29.91,SE,137,1.2,2.3,79,0.00,,,0.00,WUHU216HW,2013-02-24 13:11:00,
2013-02-24 07:16:00,24.2,18.9,29.91,ESE,105,2.8,3.3,80,0.00,,,0.00,WUHU216HW,2013-02-24 13:16:00,
2013-02-24 07:21:00,24.2,18.7,29.91,SE,135,1.7,2.1,79,0.00,,,0.00,WUHU216HW,2013-02-24 13:21:00,
2013-02-24 07:26:00,24.4,19.1,29.92,SE,127,2.0,2.5,80,0.00,,,0.00,WUHU216HW,2013-02-24 13:26:00,
2013-02-24 07:31:00,24.6,19.3,29.92,SE,133,2.7,3.9,80,0.00,,,0.00,WUHU216HW,2013-02-24 13:31:00,
2013-02-24 07:36:00,24.6,19.0,29.93,SSE,154,2.1,3.3,79,0.00,,,0.00,WUHU216HW,2013-02-24 13:36:00,
2013-02-24 07:41:00,24.6,19.3,29.92,SE,140,2.4,3.3,80,0.00,,,0.00,WUHU216HW,2013-02-24 13:41:00,
2013-02-24 07:46:00,24.6,19.0,29.93,SE,145,3.0,3.9,79,0.00,,,0.00,WUHU216HW,2013-02-24 13:46:00,
2013-02-24 07:52:00,24.8,19.2,29.93,SE,143,2.0,2.5,79,0.00,,,0.00,WUHU216HW,2013-02-24 13:52:00,
2013-02-24 07:57:00,24.9,19.3,29.93,SE,143,2.1,2.5,79,0.00,,,0.00,WUHU216HW,2013-02-24 13:57:00,
2013-02-24 08:02:00,24.9,19.3,29.93,SE,143,1.5,2.1,79,0.00,,,0.00,WUHU216HW,2013-02-24 14:02:00,
2013-02-24 08:07:00,25.1,19.5,29.93,SSE,158,2.6,3.3,79,0.00,,,0.00,WUHU216HW,2013-02-24 14:07:00,
2013-02-24 08:12:00,25.3,19.7,29.93,SSE,153,1.1,2.1,79,0.00,,,0.00,WUHU216HW,2013-02-24 14:12:00,
2013-02-24 08:17:00,25.7,20.1,29.94,SSE,147,2.3,2.9,79,0.00,,,0.00,WUHU216HW,2013-02-24 14:17:00,
2013-02-24 08:22:00,26.0,20.4,29.94,SSE,155,3.2,4.4,79,0.00,,,0.00,WUHU216HW,2013-02-24 14:22:00,
2013-02-24 08:27:00,26.0,20.4,29.94,SE,133,2.4,3.1,79,0.00,,,0.00,WUHU216HW,2013-02-24 14:27:00,
2013-02-24 08:32:00,26.2,20.6,29.94,SE,128,2.0,2.5,79,0.00,,,0.00,WUHU216HW,2013-02-24 14:32:00,
2013-02-24 08:37:00,26.0,20.4,29.94,ESE,118,3.1,3.9,79,0.00,,,0.00,WUHU216HW,2013-02-24 14:37:00,
2013-02-24 08:42:00,26.0,20.4,29.94,ESE,104,2.9,3.9,79,0.00,,,0.00,WUHU216HW,2013-02-24 14:42:00,
2013-02-24 08:47:00,26.0,20.4,29.94,SE,134,2.9,3.6,79,0.00,,,0.00,WUHU216HW,2013-02-24 14:47:00,
2013-02-24 08:52:00,26.0,20.4,29.94,ESE,116,2.5,3.3,79,0.00,,,0.00,WUHU216HW,2013-02-24 14:52:00,
2013-02-24 08:57:00,26.4,20.8,29.94,SE,125,2.6,3.1,79,0.00,,,0.00,WUHU216HW,2013-02-24 14:57:00,
2013-02-24 09:02:00,26.7,21.1,29.94,SE,145,2.1,2.9,79,0.00,,,0.00,WUHU216HW,2013-02-24 15:02:00,
2013-02-24 09:07:00,27.1,21.5,29.94,SE,145,2.3,2.9,79,0.00,,,0.00,WUHU216HW,2013-02-24 15:07:00,
2013-02-24 09:12:00,27.3,21.7,29.94,SE,145,2.5,2.9,79,0.00,,,0.00,WUHU216HW,2013-02-24 15:12:00,
2013-02-24 09:17:00,27.5,21.6,29.94,SE,139,2.4,3.3,78,0.00,,,0.00,WUHU216HW,2013-02-24 15:17:00,
2013-02-24 09:22:00,27.8,21.9,29.95,SE,135,2.9,4.1,78,0.00,,,0.00,WUHU216HW,2013-02-24 15:22:00,
2013-02-24 09:27:00,28.0,21.8,29.95,SE,141,3.0,3.9,77,0.00,,,0.00,WUHU216HW,2013-02-24 15:27:00,
2013-02-24 09:32:00,28.2,22.0,29.95,SSE,158,2.9,4.1,77,0.00,,,0.00,WUHU216HW,2013-02-24 15:32:00,
2013-02-24 09:37:00,28.5,22.3,29.95,SSE,148,1.5,2.3,77,0.00,,,0.00,WUHU216HW,2013-02-24 15:37:00,
2013-02-24 09:42:00,29.1,22.9,29.96,SSE,149,1.7,2.9,77,0.00,,,0.00,WUHU216HW,2013-02-24 15:42:00,
2013-02-24 09:47:00,29.3,23.1,29.95,SE,142,2.3,3.3,77,0.00,,,0.00,WUHU216HW,2013-02-24 15:47:00,
2013-02-24 09:52:00,29.6,23.0,29.96,SE,142,2.0,3.1,76,0.00,,,0.00,WUHU216HW,2013-02-24 15:52:00,
2013-02-24 09:57:00,30.0,23.4,29.96,SE,145,2.4,3.1,76,0.00,,,0.00,WUHU216HW,2013-02-24 15:57:00,
2013-02-24 10:02:00,30.0,23.4,29.96,SSE,166,2.0,4.1,76,0.00,,,0.00,WUHU216HW,2013-02-24 16:02:00,
2013-02-24 10:07:00,30.3,23.6,29.96,ESE,119,1.5,2.1,76,0.00,,,0.00,WUHU216HW,2013-02-24 16:07:00,
2013-02-24 10:12:00,30.4,23.7,29.96,SE,137,1.7,2.5,76,0.00,,,0.00,WUHU216HW,2013-02-24 16:12:00,
2013-02-24 10:17:00,30.6,23.9,29.97,SSE,153,1.2,2.5,76,0.00,,,0.00,WUHU216HW,2013-02-24 16:17:00,
2013-02-24 10:22:00,30.8,24.1,29.97,SSE,157,1.0,2.3,76,0.00,,,0.00,WUHU216HW,2013-02-24 16:22:00,
2013-02-24 10:27:00,31.3,24.6,29.97,South,176,1.7,3.6,76,0.00,,,0.00,WUHU216HW,2013-02-24 16:27:00,
2013-02-24 10:32:00,31.9,24.9,29.97,SSE,164,1.7,3.1,75,0.00,,,0.00,WUHU216HW,2013-02-24 16:32:00,
2013-02-24 10:37:00,32.4,25.4,29.97,ESE,121,1.8,2.5,75,0.00,,,0.00,WUHU216HW,2013-02-24 16:37:00,
2013-02-24 10:42:00,32.8,25.4,29.97,SE,131,1.1,2.1,74,0.00,,,0.00,WUHU216HW,2013-02-24 16:42:00,
2013-02-24 10:47:00,33.1,25.4,29.97,SSE,155,1.6,2.9,73,0.00,,,0.00,WUHU216HW,2013-02-24 16:47:00,
2013-02-24 10:52:00,33.5,25.8,29.97,East,98,3.0,3.3,73,0.00,,,0.00,WUHU216HW,2013-02-24 16:52:00,
2013-02-24 10:57:00,33.9,25.9,29.97,SE,141,2.3,3.9,72,0.00,,,0.00,WUHU216HW,2013-02-24 16:57:00,
2013-02-24 11:02:00,33.9,25.9,29.97,SE,140,2.1,3.9,72,0.00,,,0.00,WUHU216HW,2013-02-24 17:02:00,
2013-02-24 11:07:00,34.2,26.1,29.97,SSE,164,2.8,4.1,72,0.00,,,0.00,WUHU216HW,2013-02-24 17:07:00,
2013-02-24 11:12:00,34.6,26.9,29.97,SE,133,1.1,1.3,73,0.00,,,0.00,WUHU216HW,2013-02-24 17:12:00,
2013-02-24 11:17:00,35.1,27.0,29.97,SSE,161,2.5,3.3,72,0.00,,,0.00,WUHU216HW,2013-02-24 17:17:00,
2013-02-24 11:22:00,35.3,26.9,29.97,SSE,165,2.8,3.6,71,0.00,,,0.00,WUHU216HW,2013-02-24 17:22:00,
2013-02-24 11:27:00,35.7,27.3,29.97,South,176,2.5,3.3,71,0.00,,,0.00,WUHU216HW,2013-02-24 17:27:00,
2013-02-24 11:32:00,35.8,27.4,29.97,SSE,154,1.2,2.9,71,0.00,,,0.00,WUHU216HW,2013-02-24 17:32:00,
2013-02-24 11:37:00,36.9,28.4,29.97,SE,143,2.9,4.1,71,0.00,,,0.00,WUHU216HW,2013-02-24 17:37:00,
2013-02-24 11:42:00,37.3,28.1,29.97,SSE,151,2.3,3.9,69,0.00,,,0.00,WUHU216HW,2013-02-24 17:42:00,
2013-02-24 11:47:00,37.5,28.3,29.97,South,188,2.3,4.1,69,0.00,,,0.00,WUHU216HW,2013-02-24 17:47:00,
2013-02-24 11:52:00,37.6,27.7,29.97,SE,135,3.2,3.9,67,0.00,,,0.00,WUHU216HW,2013-02-24 17:52:00,
2013-02-24 11:57:00,38.0,28.4,29.97,SSE,164,3.4,4.9,68,0.00,,,0.00,WUHU216HW,2013-02-24 17:57:00,
2013-02-24 12:02:00,38.4,28.8,29.97,SSE,151,5.1,5.4,68,0.00,,,0.00,WUHU216HW,2013-02-24 18:02:00,
2013-02-24 12:07:00,38.5,28.6,29.97,SSE,155,4.1,6.2,67,0.00,,,0.00,WUHU216HW,2013-02-24 18:07:00,
2013-02-24 12:12:00,38.5,28.6,29.97,SE,131,3.0,3.9,67,0.00,,,0.00,WUHU216HW,2013-02-24 18:12:00,
2013-02-24 12:17:00,38.4,28.1,29.97,SSE,152,3.1,3.9,66,0.00,,,0.00,WUHU216HW,2013-02-24 18:17:00,
2013-02-24 12:22:00,38.4,28.5,29.97,South,186,2.2,2.9,67,0.00,,,0.00,WUHU216HW,2013-02-24 18:22:00,
2013-02-24 12:27:00,38.7,28.4,29.97,SE,146,4.5,5.2,66,0.00,,,0.00,WUHU216HW,2013-02-24 18:27:00,
2013-02-24 12:32:00,39.3,29.0,29.97,SSE,154,4.3,6.2,66,0.00,,,0.00,WUHU216HW,2013-02-24 18:32:00,
2013-02-24 12:37:00,39.3,28.6,29.97,SE,135,3.9,3.9,65,0.00,,,0.00,WUHU216HW,2013-02-24 18:37:00,
2013-02-24 12:42:00,39.1,28.0,29.96,SE,130,3.5,5.4,64,0.00,,,0.00,WUHU216HW,2013-02-24 18:42:00,
2013-02-24 12:47:00,39.1,28.4,29.96,SSW,197,4.1,5.2,65,0.00,,,0.00,WUHU216HW,2013-02-24 18:47:00,
2013-02-24 12:52:00,39.4,28.3,29.96,SSE,167,3.0,5.2,64,0.00,,,0.00,WUHU216HW,2013-02-24 18:52:00,
2013-02-24 12:57:00,39.8,29.1,29.95,South,181,4.1,6.2,65,0.00,,,0.00,WUHU216HW,2013-02-24 18:57:00,
2013-02-24 13:02:00,40.0,28.9,29.95,SSE,152,3.4,4.9,64,0.00,,,0.00,WUHU216HW,2013-02-24 19:02:00,
2013-02-24 13:07:00,40.5,29.7,29.95,SSE,149,3.7,4.4,65,0.00,,,0.00,WUHU216HW,2013-02-24 19:07:00,
2013-02-24 13:12:00,40.7,29.6,29.95,SE,131,2.9,3.9,64,0.00,,,0.00,WUHU216HW,2013-02-24 19:12:00,
2013-02-24 13:17:00,40.9,29.7,29.95,South,181,4.8,5.9,64,0.00,,,0.00,WUHU216HW,2013-02-24 19:17:00,
2013-02-24 13:22:00,40.9,29.7,29.94,South,185,4.0,4.1,64,0.00,,,0.00,WUHU216HW,2013-02-24 19:22:00,
2013-02-24 13:27:00,41.2,30.0,29.94,SSW,205,2.7,4.1,64,0.00,,,0.00,WUHU216HW,2013-02-24 19:27:00,
2013-02-24 13:32:00,41.2,30.0,29.94,SSE,167,3.7,4.6,64,0.00,,,0.00,WUHU216HW,2013-02-24 19:32:00,
2013-02-24 13:37:00,41.4,29.8,29.95,South,174,3.4,3.6,63,0.00,,,0.00,WUHU216HW,2013-02-24 19:37:00,
2013-02-24 13:42:00,41.4,29.8,29.94,South,186,3.1,3.9,63,0.00,,,0.00,WUHU216HW,2013-02-24 19:42:00,
2013-02-24 13:47:00,41.4,29.8,29.94,SE,140,2.7,3.1,63,0.00,,,0.00,WUHU216HW,2013-02-24 19:47:00,
2013-02-24 13:52:00,41.1,29.1,29.93,ESE,112,2.2,3.9,62,0.00,,,0.00,WUHU216HW,2013-02-24 19:52:00,
2013-02-24 13:57:00,41.1,29.5,29.93,SE,127,2.6,3.1,63,0.00,,,0.00,WUHU216HW,2013-02-24 19:57:00,
2013-02-24 14:02:00,41.2,29.2,29.93,ESE,113,2.9,4.4,62,0.00,,,0.00,WUHU216HW,2013-02-24 20:02:00,
2013-02-24 14:07:00,41.2,29.6,29.93,SSE,167,3.4,4.4,63,0.00,,,0.00,WUHU216HW,2013-02-24 20:07:00,
2013-02-24 14:12:00,41.6,30.0,29.93,SSE,149,3.0,3.9,63,0.00,,,0.00,WUHU216HW,2013-02-24 20:12:00,
2013-02-24 14:17:00,41.6,29.6,29.93,South,173,3.8,4.4,62,0.00,,,0.00,WUHU216HW,2013-02-24 20:17:00,
2013-02-24 14:22:00,41.8,29.8,29.93,SE,144,1.7,3.9,62,0.00,,,0.00,WUHU216HW,2013-02-24 20:22:00,
2013-02-24 14:27:00,41.6,29.6,29.93,SSE,149,2.1,3.6,62,0.00,,,0.00,WUHU216HW,2013-02-24 20:27:00,
2013-02-24 14:32:00,41.6,29.6,29.93,SSE,156,2.0,3.1,62,0.00,,,0.00,WUHU216HW,2013-02-24 20:32:00,
2013-02-24 14:37:00,41.8,29.8,29.93,South,170,2.3,3.9,62,0.00,,,0.00,WUHU216HW,2013-02-24 20:37:00,
2013-02-24 14:42:00,42.0,29.6,29.93,South,173,1.5,2.3,61,0.00,,,0.00,WUHU216HW,2013-02-24 20:42:00,
2013-02-24 14:47:00,42.0,29.6,29.93,SSW,207,2.2,2.9,61,0.00,,,0.00,WUHU216HW,2013-02-24 20:47:00,
2013-02-24 14:52:00,42.5,30.5,29.93,SSW,211,2.9,3.9,62,0.00,,,0.00,WUHU216HW,2013-02-24 20:52:00,
2013-02-24 14:57:00,42.5,30.5,29.92,SW,219,4.3,5.2,62,0.00,,,0.00,WUHU216HW,2013-02-24 20:57:00,
2013-02-24 15:02:00,42.3,30.3,29.92,SSE,154,1.7,2.9,62,0.00,,,0.00,WUHU216HW,2013-02-24 21:02:00,
2013-02-24 15:07:00,42.3,29.5,29.92,SE,144,1.5,2.5,60,0.00,,,0.00,WUHU216HW,2013-02-24 21:07:00,
2013-02-24 15:12:00,42.1,29.3,29.92,SE,135,1.7,2.9,60,0.00,,,0.00,WUHU216HW,2013-02-24 21:12:00,
2013-02-24 15:17:00,42.3,29.5,29.92,SSE,168,1.3,1.8,60,0.00,,,0.00,WUHU216HW,2013-02-24 21:17:00,
2013-02-24 15:22:00,42.3,29.1,29.92,SSE,160,2.3,2.9,59,0.00,,,0.00,WUHU216HW,2013-02-24 21:22:00,
2013-02-24 15:27:00,42.7,29.9,29.92,SSW,210,1.6,3.6,60,0.00,,,0.00,WUHU216HW,2013-02-24 21:27:00,
2013-02-24 15:32:00,42.9,30.0,29.92,SSW,204,2.8,5.4,60,0.00,,,0.00,WUHU216HW,2013-02-24 21:32:00,
2013-02-24 15:37:00,42.9,30.0,29.91,South,184,1.1,2.1,60,0.00,,,0.00,WUHU216HW,2013-02-24 21:37:00,
2013-02-24 15:42:00,43.0,30.1,29.91,South,191,0.3,0.5,60,0.00,,,0.00,WUHU216HW,2013-02-24 21:42:00,
2013-02-24 15:47:00,43.0,29.7,29.92,ESE,104,0.9,1.5,59,0.00,,,0.00,WUHU216HW,2013-02-24 21:47:00,
2013-02-24 15:52:00,43.0,29.7,29.92,South,176,1.6,3.6,59,0.00,,,0.00,WUHU216HW,2013-02-24 21:52:00,
2013-02-24 15:57:00,43.0,29.7,29.92,SSE,163,1.9,2.3,59,0.00,,,0.00,WUHU216HW,2013-02-24 21:57:00,
2013-02-24 16:02:00,43.2,29.9,29.92,SE,144,1.7,2.1,59,0.00,,,0.00,WUHU216HW,2013-02-24 22:02:00,
2013-02-24 16:07:00,43.2,29.5,29.92,SSE,147,2.7,4.6,58,0.00,,,0.00,WUHU216HW,2013-02-24 22:07:00,
2013-02-24 16:12:00,43.0,29.3,29.92,South,179,2.9,3.6,58,0.00,,,0.00,WUHU216HW,2013-02-24 22:12:00,
2013-02-24 16:17:00,43.0,29.3,29.92,SSE,149,2.1,2.9,58,0.00,,,0.00,WUHU216HW,2013-02-24 22:17:00,
2013-02-24 16:22:00,42.7,29.4,29.92,South,176,2.0,2.9,59,0.00,,,0.00,WUHU216HW,2013-02-24 22:22:00,
2013-02-24 16:27:00,42.7,29.4,29.92,SSE,151,1.8,2.9,59,0.00,,,0.00,WUHU216HW,2013-02-24 22:27:00,
2013-02-24 16:32:00,42.7,29.0,29.93,ESE,106,2.2,3.3,58,0.00,,,0.00,WUHU216HW,2013-02-24 22:32:00,
2013-02-24 16:37:00,42.5,28.8,29.93,East,100,3.1,4.6,58,0.00,,,0.00,WUHU216HW,2013-02-24 22:37:00,
2013-02-24 16:42:00,41.8,28.2,29.93,East,100,4.3,4.9,58,0.00,,,0.00,WUHU216HW,2013-02-24 22:42:00,
2013-02-24 16:47:00,41.6,28.4,29.93,East,88,4.8,6.2,59,0.00,,,0.00,WUHU216HW,2013-02-24 22:47:00,
2013-02-24 16:52:00,41.4,28.2,29.93,East,93,3.5,6.4,59,0.00,,,0.00,WUHU216HW,2013-02-24 22:52:00,
2013-02-24 16:57:00,41.2,28.0,29.93,NE,51,2.1,2.9,59,0.00,,,0.00,WUHU216HW,2013-02-24 22:57:00,
2013-02-24 17:02:00,41.1,28.3,29.93,East,98,3.0,6.2,60,0.00,,,0.00,WUHU216HW,2013-02-24 23:02:00,
2013-02-24 17:07:00,40.9,28.1,29.94,ESE,107,3.6,6.4,60,0.00,,,0.00,WUHU216HW,2013-02-24 23:07:00,
2013-02-24 17:12:00,40.7,28.4,29.94,East,96,3.2,6.2,61,0.00,,,0.00,WUHU216HW,2013-02-24 23:12:00,
2013-02-24 17:17:00,40.5,28.2,29.94,East,89,2.9,4.6,61,0.00,,,0.00,WUHU216HW,2013-02-24 23:17:00,
2013-02-24 17:22:00,40.3,28.0,29.94,East,97,2.9,4.9,61,0.00,,,0.00,WUHU216HW,2013-02-24 23:22:00,
2013-02-24 17:27:00,40.3,28.4,29.94,ENE,58,2.6,3.9,62,0.00,,,0.00,WUHU216HW,2013-02-24 23:27:00,
2013-02-24 17:32:00,40.2,28.3,29.94,East,89,1.8,2.1,62,0.00,,,0.00,WUHU216HW,2013-02-24 23:32:00,
2013-02-24 17:37:00,40.0,28.1,29.94,NE,40,1.5,2.5,62,0.00,,,0.00,WUHU216HW,2013-02-24 23:37:00,
2013-02-24 17:42:00,39.6,27.7,29.94,NE,55,2.8,4.4,62,0.00,,,0.00,WUHU216HW,2013-02-24 23:42:00,
2013-02-24 17:47:00,39.3,27.8,29.94,NE,56,3.3,5.4,63,0.00,,,0.00,WUHU216HW,2013-02-24 23:47:00,
2013-02-24 17:52:00,38.9,27.4,29.95,NE,41,2.2,3.3,63,0.00,,,0.00,WUHU216HW,2013-02-24 23:52:00,
2013-02-24 17:57:00,38.7,27.3,29.94,ENE,69,3.6,4.9,63,0.00,,,0.00,WUHU216HW,2013-02-24 23:57:00,
2013-02-24 18:02:00,38.4,27.0,29.95,East,82,4.2,5.4,63,0.00,,,0.00,WUHU216HW,2013-02-25 00:02:00,
2013-02-24 18:07:00,38.2,26.8,29.95,East,94,4.6,6.9,63,0.00,,,0.00,WUHU216HW,2013-02-25 00:07:00,
2013-02-24 18:12:00,38.0,26.6,29.95,East,97,3.3,4.9,63,0.00,,,0.00,WUHU216HW,2013-02-25 00:12:00,
2013-02-24 18:17:00,37.8,26.8,29.95,East,98,4.1,5.4,64,0.00,,,0.00,WUHU216HW,2013-02-25 00:17:00,
2013-02-24 18:22:00,37.6,27.0,29.96,East,80,3.0,4.4,65,0.00,,,0.00,WUHU216HW,2013-02-25 00:22:00,
2013-02-24 18:27:00,37.6,27.0,29.96,East,82,4.6,5.4,65,0.00,,,0.00,WUHU216HW,2013-02-25 00:27:00,
2013-02-24 18:32:00,37.5,27.2,29.96,ENE,76,3.0,3.1,66,0.00,,,0.00,WUHU216HW,2013-02-25 00:32:00,
2013-02-24 18:37:00,37.3,27.0,29.96,East,81,2.0,2.3,66,0.00,,,0.00,WUHU216HW,2013-02-25 00:37:00,
2013-02-24 18:42:00,37.1,27.2,29.96,East,93,2.9,4.4,67,0.00,,,0.00,WUHU216HW,2013-02-25 00:42:00,
2013-02-24 18:47:00,37.1,27.2,29.96,ENE,64,1.4,2.1,67,0.00,,,0.00,WUHU216HW,2013-02-25 00:47:00,
2013-02-24 18:52:00,37.3,27.4,29.96,ENE,64,1.4,1.5,67,0.00,,,0.00,WUHU216HW,2013-02-25 00:52:00,
2013-02-24 18:57:00,37.3,27.4,29.96,NE,51,0.9,1.8,67,0.00,,,0.00,WUHU216HW,2013-02-25 00:57:00,
2013-02-24 19:02:00,37.1,27.2,29.97,ENE,63,1.3,1.8,67,0.00,,,0.00,WUHU216HW,2013-02-25 01:02:00,
2013-02-24 19:07:00,36.9,27.0,29.97,ENE,58,1.1,1.8,67,0.00,,,0.00,WUHU216HW,2013-02-25 01:07:00,
2013-02-24 19:12:00,36.9,27.0,29.97,East,85,1.0,2.1,67,0.00,,,0.00,WUHU216HW,2013-02-25 01:12:00,
2013-02-24 19:17:00,36.9,27.0,29.98,East,80,1.1,1.3,67,0.00,,,0.00,WUHU216HW,2013-02-25 01:17:00,
2013-02-24 19:22:00,36.9,27.0,29.98,East,93,1.0,2.9,67,0.00,,,0.00,WUHU216HW,2013-02-25 01:22:00,
2013-02-24 19:27:00,36.9,27.0,29.98,ENE,68,0.5,0.5,67,0.00,,,0.00,WUHU216HW,2013-02-25 01:27:00,
2013-02-24 19:32:00,37.1,27.2,29.98,North,0,0.0,0.0,67,0.00,,,0.00,WUHU216HW,2013-02-25 01:32:00,
2013-02-24 19:37:00,37.1,27.2,29.98,ESE,106,0.8,1.8,67,0.00,,,0.00,WUHU216HW,2013-02-25 01:37:00,
2013-02-24 19:42:00,37.1,27.2,29.98,ESE,102,1.5,2.1,67,0.00,,,0.00,WUHU216HW,2013-02-25 01:42:00,
2013-02-24 19:47:00,37.3,27.8,29.98,East,98,1.2,1.5,68,0.00,,,0.00,WUHU216HW,2013-02-25 01:47:00,
2013-02-24 19:52:00,37.3,27.4,29.99,East,90,0.6,1.0,67,0.00,,,0.00,WUHU216HW,2013-02-25 01:52:00,
2013-02-24 19:57:00,37.3,27.8,29.99,WNW,293,0.6,0.8,68,0.00,,,0.00,WUHU216HW,2013-02-25 01:57:00,
2013-02-24 20:02:00,37.5,28.0,29.99,NW,310,0.5,0.5,68,0.00,,,0.00,WUHU216HW,2013-02-25 02:02:00,
2013-02-24 20:08:00,37.5,28.0,29.99,NNW,338,0.6,0.8,68,0.00,,,0.00,WUHU216HW,2013-02-25 02:08:00,
2013-02-24 20:13:00,37.6,28.1,29.99,North,6,1.4,1.8,68,0.00,,,0.00,WUHU216HW,2013-02-25 02:13:00,
2013-02-24 20:18:00,37.5,28.0,29.99,North,4,1.3,1.5,68,0.00,,,0.00,WUHU216HW,2013-02-25 02:18:00,
2013-02-24 20:23:00,37.3,27.4,29.99,NNE,19,0.8,1.3,67,0.00,,,0.00,WUHU216HW,2013-02-25 02:23:00,
2013-02-24 20:28:00,37.3,27.8,29.99,NNW,348,1.2,2.1,68,0.00,,,0.00,WUHU216HW,2013-02-25 02:28:00,
2013-02-24 20:33:00,37.3,27.8,30.00,NNW,338,1.9,2.1,68,0.00,,,0.00,WUHU216HW,2013-02-25 02:33:00,
2013-02-24 20:38:00,37.6,28.8,30.00,NNW,338,1.7,1.8,70,0.00,,,0.00,WUHU216HW,2013-02-25 02:38:00,
2013-02-24 20:43:00,38.7,31.2,30.00,North,356,1.9,2.1,74,0.00,,,0.00,WUHU216HW,2013-02-25 02:43:00,
2013-02-24 20:48:00,39.3,31.8,30.00,North,2,1.7,2.9,74,0.00,,,0.00,WUHU216HW,2013-02-25 02:48:00,
2013-02-24 20:53:00,40.0,32.1,30.01,North,356,1.3,2.1,73,0.00,,,0.00,WUHU216HW,2013-02-25 02:53:00,
2013-02-24 20:58:00,40.3,31.7,30.01,NNE,13,0.9,1.5,71,0.00,,,0.00,WUHU216HW,2013-02-25 02:58:00,
2013-02-24 21:03:00,40.9,32.0,30.01,North,3,1.1,1.5,70,0.00,,,0.00,WUHU216HW,2013-02-25 03:03:00,
2013-02-24 21:08:00,41.1,31.8,30.01,North,0,1.1,1.3,69,0.00,,,0.00,WUHU216HW,2013-02-25 03:08:00,
2013-02-24 21:13:00,41.2,31.5,30.01,NE,53,0.3,0.5,68,0.00,,,0.00,WUHU216HW,2013-02-25 03:13:00,
2013-02-24 21:18:00,41.6,31.5,30.01,NNW,338,0.5,0.5,67,0.00,,,0.00,WUHU216HW,2013-02-25 03:18:00,
2013-02-24 21:23:00,41.6,31.5,30.01,NW,317,1.2,2.1,67,0.00,,,0.00,WUHU216HW,2013-02-25 03:23:00,
2013-02-24 21:28:00,41.2,31.2,30.01,West,280,0.8,1.0,67,0.00,,,0.00,WUHU216HW,2013-02-25 03:28:00,
2013-02-24 21:33:00,40.7,30.7,30.02,NNW,348,0.7,1.3,67,0.00,,,0.00,WUHU216HW,2013-02-25 03:33:00,
2013-02-24 21:38:00,39.8,29.4,30.01,North,6,0.3,0.5,66,0.00,,,0.00,WUHU216HW,2013-02-25 03:38:00,
2013-02-24 21:43:00,39.4,29.4,30.01,NNE,13,0.9,1.8,67,0.00,,,0.00,WUHU216HW,2013-02-25 03:43:00,
2013-02-24 21:48:00,39.6,31.0,30.01,North,5,1.3,1.5,71,0.00,,,0.00,WUHU216HW,2013-02-25 03:48:00,
2013-02-24 21:53:00,40.2,32.6,30.01,North,10,0.9,1.8,74,0.00,,,0.00,WUHU216HW,2013-02-25 03:53:00,
2013-02-24 21:58:00,40.2,33.0,30.01,North,353,1.5,1.8,75,0.00,,,0.00,WUHU216HW,2013-02-25 03:58:00,
2013-02-24 22:03:00,40.2,33.6,30.01,North,357,1.8,2.5,77,0.00,,,0.00,WUHU216HW,2013-02-25 04:03:00,
2013-02-24 22:08:00,40.5,34.2,30.02,NNW,343,1.2,1.8,78,0.00,,,0.00,WUHU216HW,2013-02-25 04:08:00,
2013-02-24 22:13:00,40.3,34.3,30.02,NNW,347,1.2,2.1,79,0.00,,,0.00,WUHU216HW,2013-02-25 04:13:00,
2013-02-24 22:18:00,40.5,34.8,30.02,NNE,12,1.4,2.1,80,0.00,,,0.00,WUHU216HW,2013-02-25 04:18:00,
2013-02-24 22:23:00,40.5,35.1,30.02,North,356,1.4,1.5,81,0.00,,,0.00,WUHU216HW,2013-02-25 04:23:00,
2013-02-24 22:28:00,40.5,35.1,30.02,North,354,0.9,1.3,81,0.00,,,0.00,WUHU216HW,2013-02-25 04:28:00,
2013-02-24 22:33:00,40.7,35.3,30.02,North,9,0.7,1.0,81,0.00,,,0.00,WUHU216HW,2013-02-25 04:33:00,
2013-02-24 22:38:00,40.5,35.1,30.02,North,356,1.5,2.3,81,0.00,,,0.00,WUHU216HW,2013-02-25 04:38:00,
2013-02-24 22:43:00,39.8,33.5,30.02,North,356,2.0,2.9,78,0.00,,,0.00,WUHU216HW,2013-02-25 04:43:00,
2013-02-24 22:48:00,39.4,32.5,30.02,NNW,343,1.8,2.1,76,0.00,,,0.00,WUHU216HW,2013-02-25 04:48:00,
2013-02-24 22:53:00,38.7,30.8,30.02,North,355,2.6,3.1,73,0.00,,,0.00,WUHU216HW,2013-02-25 04:53:00,
2013-02-24 22:58:00,37.8,29.3,30.02,NNW,342,3.4,4.9,71,0.00,,,0.00,WUHU216HW,2013-02-25 04:58:00,
2013-02-24 23:03:00,36.6,28.5,30.01,North,353,3.9,5.2,72,0.00,,,0.00,WUHU216HW,2013-02-25 05:03:00,
2013-02-24 23:08:00,36.0,28.2,30.01,North,358,5.1,5.9,73,0.00,,,0.00,WUHU216HW,2013-02-25 05:08:00,
2013-02-24 23:13:00,36.2,29.7,30.01,North,355,5.4,6.7,77,0.00,,,0.00,WUHU216HW,2013-02-25 05:13:00,
2013-02-24 23:18:00,36.2,29.7,30.01,NNW,342,4.3,5.9,77,0.00,,,0.00,WUHU216HW,2013-02-25 05:18:00,
2013-02-24 23:23:00,36.2,29.7,30.01,North,4,4.4,5.4,77,0.00,,,0.00,WUHU216HW,2013-02-25 05:23:00,
2013-02-24 23:28:00,36.2,29.7,30.01,NNW,330,3.9,6.2,77,0.00,,,0.00,WUHU216HW,2013-02-25 05:28:00,
2013-02-24 23:33:00,36.6,30.1,30.01,NNW,343,3.2,4.9,77,0.00,,,0.00,WUHU216HW,2013-02-25 05:33:00,
2013-02-24 23:38:00,36.9,30.4,30.01,NNW,343,2.6,3.9,77,0.00,,,0.00,WUHU216HW,2013-02-25 05:38:00,
2013-02-24 23:43:00,36.9,29.7,30.01,NNW,330,2.1,3.3,75,0.00,,,0.00,WUHU216HW,2013-02-25 05:43:00,
2013-02-24 23:48:00,36.6,28.8,30.01,NNW,336,1.7,3.1,73,0.00,,,0.00,WUHU216HW,2013-02-25 05:48:00,
2013-02-24 23:53:00,36.4,28.6,30.01,North,349,3.0,4.4,73,0.00,,,0.00,WUHU216HW,2013-02-25 05:53:00,
2013-02-24 23:58:00,36.2,28.4,30.01,NNW,342,4.1,4.4,73,0.00,,,0.00,WUHU216HW,2013-02-25 05:58:00,